Location: Chircca
(13.7944°S, 72.0608°W)
Time: 05:33:25
(UTC+00:00)

ALOS - Pass Details

Date: 14 July 2020
Orbit: 684 x 685 km, 97.9° (Epoch: 14 August)

Event Time Altitude Azimuth Distance (km) Brightness Sun altitude
Rises 09:35:55 0° 355° (N) 3,028 5.8 -23.0°
Reaches altitude 10° 09:38:17 10° 346° (NNW) 2,119 4.8 -22.4°
Enters shadow 09:41:14 30° 314° (NW) 1,219 3.3 -21.7°
